• MPC Preparation (Info)

  • MPEC 2020-V10 : S/2003 J 16

    The following Minor Planet Electronic Circular may be linked-to from your own Web pages, but must not otherwise be redistributed electronically.

    A form allowing access to any MPEC is at the bottom of this page.


    Read MPEC 2020-V09 Read MPEC 2020-V11


    M.P.E.C. 2020-V10                              Issued 2020 November 4, 16:28 UT
    
         The Minor Planet Electronic Circulars contain information on unusual
             minor planets and routine data on comets.  They are published
        on behalf of Division F of the International Astronomical Union by the
              Minor Planet Center, Smithsonian Astrophysical Observatory,
                              Cambridge, MA 02138, U.S.A.
    
                 Prepared using the Tamkin Foundation Computer Network
    
                                  MPC@CFA.HARVARD.EDU
                URL https://www.minorplanetcenter.net/    ISSN 1523-6714
    
                                   S/2003 J 16                               
                              Satellite of Jupiter                           
    
    
                               Revision to MPEC 2003-G18                            
    
    Additional Observations:
        SK03J160 RC2010 09 08.42015 23 56 23.43 -01 53 02.2          22.8 rcEV010568
        SK03J160 {C2010 09 08.44632 23 56 22.68 -01 53 08.1                cEV010568
        SK03J160 RC2010 09 08.46159 23 56 22.28 -01 53 11.2          22.8 rcEV010568
        SK03J160 {C2010 09 08.47252 23 56 21.97 -01 53 13.7                cEV010568
        SK03J160 RC2010 09 08.47469 23 56 21.92 -01 53 14.3                cEV010568
        SK03J160 {C2010 09 08.50100 23 56 21.18 -01 53 20.0                cEV010568
        SK03J160 RC2010 09 08.50535 23 56 21.07 -01 53 21.0                cEV010568
        SK03J160 {C2010 09 08.52718 23 56 20.46 -01 53 25.8                cEV010568
        SK03J160 {C2010 09 08.54909 23 56 19.85 -01 53 30.9                cEV010568
        SK03J160 {C2010 10 02.37590 23 45 30.50 -03 22 22.3                cEV010568
        SK03J160 {C2010 10 02.37808 23 45 30.44 -03 22 22.8                cEV010568
        SK03J160 {C2010 10 02.38026 23 45 30.39 -03 22 23.2                cEV010568
        SK03J160 {C2010 10 02.38243 23 45 30.32 -03 22 23.7                cEV010568
        SK03J160 {C2010 10 02.38461 23 45 30.27 -03 22 24.1                cEV010568
        SK03J160 {C2010 10 30.21240 23 36 26.45 -04 35 54.7                cEV010568
        SK03J160 {C2010 10 30.21908 23 36 26.36 -04 35 55.6                cEV010568
        SK03J160 {C2010 10 30.22564 23 36 26.28 -04 35 56.4                cEV010568
        SK03J160 {C2010 11 01.20566 23 36 05.47 -04 38 54.3                cEV010568
        SK03J160 {C2010 11 01.21220 23 36 05.40 -04 38 54.9                cEV010568
        SK03J160 {C2010 11 01.21877 23 36 05.33 -04 38 55.5                cEV010568
        SK03J160 8C2011 10 28.27817 02 19 17.44 +11 58 39.9                cEV010675
        SK03J160 8C2011 10 28.28098 02 19 17.31 +11 58 39.6                cEV010675
        SK03J160 8C2011 10 28.28706 02 19 17.10 +11 58 38.6                cEV010675
        SK03J160 8C2011 10 28.28994 02 19 17.02 +11 58 38.2                cEV010675
        SK03J160 8C2011 10 28.29273 02 19 16.90 +11 58 37.8                cEV010675
        SK03J160 8C2011 10 28.39377 02 19 13.32 +11 58 23.5                cEV010675
        SK03J160 8C2011 10 28.39657 02 19 13.22 +11 58 23.3                cEV010675
        SK03J160 8C2011 10 28.39938 02 19 13.13 +11 58 22.8                cEV010675
        SK03J160 8C2011 10 28.40215 02 19 13.01 +11 58 22.6                cEV010675
        SK03J160 8C2011 10 28.40762 02 19 12.80 +11 58 21.4                cEV010675
        SK03J160 8C2011 10 29.35542 02 18 39.39 +11 56 09.3                cEV010675
        SK03J160 8C2011 10 29.36100 02 18 39.17 +11 56 08.3                cEV010675
        SK03J160 8C2011 10 29.36648 02 18 38.96 +11 56 07.6                cEV010675
        SK03J160 8C2011 10 29.37255 02 18 38.75 +11 56 06.9                cEV010675
        SK03J160 8C2011 10 29.37803 02 18 38.55 +11 56 06.0                cEV010675
        SK03J160 .C2017 03 23.25159 13 19 35.454-06 01 08.07         23.3 rcEV010807
        SK03J160 .C2017 03 23.27395 13 19 34.946-06 01 05.17         23.2 rcEV010807
        SK03J160 .C2017 03 26.27648 13 18 26.813-05 54 21.34         23.2 rcEV010807
        SK03J160 .C2017 03 26.32458 13 18 25.650-05 54 14.72         23.3 rcEV010807
        SK03J160 .C2017 04 23.18968 13 06 37.199-04 52 42.96         23.2 rcEV010304
        SK03J160 .C2017 04 23.31024 13 06 34.049-04 52 28.61         23.2 rcEV010304
        SK03J160 .C2018 05 12.13469 14 53 10.032-15 59 58.18         23.3 rVEV010807
        SK03J160 .C2018 05 12.15671 14 53 09.380-15 59 55.18         23.3 rVEV010807
    
    Observer details:
    304 Las Campanas Observatory.  Observer S. S. Sheppard.  6.5-m Magellan-Baade
        telescope + CCD.
    568 Mauna Kea.  Observers , C. Veillet.  Measurers E. J. Ashton, M. Beaudoin,
        B. J. Gladman, C. Veillet, M. Alexandersen, B. Gladman.  3.5-m Canada-
        France-Hawaii Telescope + CCD.
    675 Palomar Mountain.  Observers P. Nicholson, B. Gladman, S. Lawler, R.
        Jacobson, M. Brozovic.  Measurers B. Gladman, M. Alexandersen.  5-m Hale
        reflector + CCD.
    807 Cerro Tololo Observatory, La Serena.  Observers S. S. Sheppard, C.
        Trujillo.  4.0-m CTIO reflector + CCD.
    
    Orbital elements:
        S/2003 J 16
    Epoch 2020 Dec. 17.0 TT = JDT 2459200.5                 Alexandersen
    M  88.24314              (2000.0)            P               Q
    n   0.59981685     Peri.   86.51495     +0.87547150     -0.06420129
    a   0.1371176      Node    83.26365     -0.23021421     -0.92685649
    e   0.3330999      Incl.  151.16323     +0.42491301     -0.36988543
    P   1.64           H   16.3           P/d   600.18
    From 55 observations 2003 Feb. 06-2018 May 12, mean residual 0".21
    
    Residuals in seconds of arc
    030206 568  0.0+  0.2+    100908 568  0.4+  0.0-    111028 675  0.3+  0.0-
    030206 568  0.3-  0.2-    100908 568  0.3+  0.2-    111028 675  0.5+  0.1-
    030226 568  0.1+  0.2-    101002 568  0.2-  0.0-    111028 675  0.2+  0.1+
    030226 568  0.3-  0.1-    101002 568  0.2-  0.1-    111028 675  0.0+  0.4-
    030227 568  0.0+  0.3+    101002 568  0.1-  0.0-    111029 675  0.4+  0.1+
    030227 568  0.0+  0.2+    101002 568  0.3-  0.1-    111029 675  0.2+  0.1-
    030227 568  0.1-  0.2+    101002 568  0.1-  0.0-    111029 675  0.0-  0.0-
    030228 568  0.1-  0.0+    101030 568  0.2-  0.4+    111029 675  0.1+  0.2+
    030228 568  0.2-  0.1+    101030 568  0.3-  0.1+    111029 675  0.1+  0.0+
    030228 568  0.0-  0.0+    101030 568  0.4-  0.1-    170323 807  0.0-  0.3+
    030403 568  0.1-  0.4-    101101 568  0.1-  0.1+    170323 807  0.0+  0.2+
    030403 568  0.4+  0.4-    101101 568  0.1-  0.1+    170326 807  0.2+  0.2-
    100908 568  0.8+  0.3-    101101 568  0.2-  0.1+    170326 807  0.1+  0.2-
    100908 568  0.4+  0.4-    111028 675  0.4-  0.0-    170423 304  0.3+  0.2-
    100908 568  0.7+  0.1-    111028 675  0.8-  0.1+    170423 304  0.3-  0.1+
    100908 568  0.5+  0.1-    111028 675  0.6-  0.1-    180512 807  0.1-  0.3+
    100908 568  0.7+  0.2-    111028 675  0.3-  0.1-    180512 807  0.1-  0.1+
    100908 568  0.4+  0.1-    111028 675  0.6-  0.1-
    100908 568  0.6+  0.1-    111028 675  0.3+  0.2-
    
    
    M. P. C. Staff               (C) Copyright 2020 MPC           M.P.E.C. 2020-V10
    


    Read MPEC 2020-V09 Read MPEC 2020-V11


    MPEC number:

    Enter an MPEC number in one of the following forms:

    • 1997-B01 (the full form)
    • J97B01 (the packed version of the full form)
    • B01 (the abbreviated form)